BAW432 EGLL-EHAM

Flight info

Callsign BAW432
Flight time 0h 41m
Altitude 23000
Route BPK6J BPK Q295 BRAIN M197 REDFA REDF1A
Aircraft A320/M-SDE3FGHIRWY/LB1

Departure

Time 2026-05-05 12:07
Airport London Heathrow Airport (EGLL)

Arrival

Time 2026-05-05 12:48
Airport Amsterdam Airport Schiphol (EHAM)
Time Latitude Longitude Altitude Speed Heading
2026-05-05 11:30 51.46927 -0.48647 91 ft 0 kts
2026-05-05 11:56 51.46924 -0.48647 92 ft 2 kts
2026-05-05 11:56 51.46909 -0.48647 92 ft 2 kts
2026-05-05 11:56 51.46899 -0.48647 92 ft 2 kts 360°
2026-05-05 11:57 51.46885 -0.48639 92 ft 2 kts 318°
2026-05-05 11:57 51.46876 -0.48619 92 ft 2 kts 285°
2026-05-05 11:57 51.46875 -0.48606 92 ft 1 kts 267°
2026-05-05 11:57 51.46876 -0.48597 92 ft 0 kts 269°
2026-05-05 11:58 51.46876 -0.48598 92 ft 0 kts 270°
2026-05-05 11:59 51.46876 -0.48602 92 ft 1 kts 270°
2026-05-05 12:00 51.46876 -0.48629 92 ft 3 kts 271°
2026-05-05 12:00 51.46876 -0.48675 92 ft 5 kts 271°
2026-05-05 12:00 51.46872 -0.48738 92 ft 6 kts 235°
2026-05-05 12:00 51.46836 -0.48751 92 ft 3 kts 180°
2026-05-05 12:01 51.46826 -0.48751 92 ft 1 kts 180°
2026-05-05 12:01 51.46806 -0.48751 92 ft 3 kts 180°
2026-05-05 12:01 51.46772 -0.48750 92 ft 5 kts 180°
2026-05-05 12:01 51.46726 -0.48750 92 ft 7 kts 180°
2026-05-05 12:02 51.46668 -0.48749 92 ft 9 kts 180°
2026-05-05 12:02 51.46612 -0.48761 92 ft 5 kts 199°
2026-05-05 12:02 51.46602 -0.48766 92 ft 0 kts 199°
2026-05-05 12:04 51.46601 -0.48767 92 ft 0 kts 199°
2026-05-05 12:04 51.46589 -0.48774 92 ft 2 kts 199°
2026-05-05 12:04 51.46565 -0.48787 92 ft 4 kts 200°
2026-05-05 12:05 51.46528 -0.48790 92 ft 6 kts 166°
2026-05-05 12:05 51.46491 -0.48746 92 ft 7 kts 125°
2026-05-05 12:05 51.46476 -0.48678 92 ft 0 kts 88°
2026-05-05 12:06 51.46476 -0.48671 92 ft 4 kts 88°
2026-05-05 12:07 51.46478 -0.48316 92 ft 65 kts 90°
2026-05-05 12:07 51.46482 -0.47235 92 ft 126 kts 90°
2026-05-05 12:07 51.46487 -0.45560 136 ft 171 kts 88°
2026-05-05 12:07 51.46492 -0.43653 718 ft 171 kts 87°
2026-05-05 12:08 51.46559 -0.41757 1366 ft 172 kts 73°
2026-05-05 12:08 51.47158 -0.40166 1987 ft 170 kts 46°
2026-05-05 12:08 51.47995 -0.38743 2354 ft 184 kts 46°
2026-05-05 12:08 51.48885 -0.37167 2794 ft 195 kts 47°
2026-05-05 12:09 51.49815 -0.35442 3151 ft 214 kts 49°
2026-05-05 12:09 51.50793 -0.33585 3652 ft 227 kts 49°
2026-05-05 12:09 51.51816 -0.31605 4235 ft 237 kts 50°
2026-05-05 12:09 51.52735 -0.29373 4823 ft 248 kts 66°
2026-05-05 12:10 51.53279 -0.26626 5360 ft 263 kts 73°
2026-05-05 12:10 51.53751 -0.23842 6182 ft 264 kts 73°
2026-05-05 12:10 51.54265 -0.21002 6989 ft 267 kts 69°
2026-05-05 12:10 51.55271 -0.18535 7688 ft 271 kts 41°
2026-05-05 12:11 51.56889 -0.17050 8386 ft 276 kts 16°
2026-05-05 12:11 51.58792 -0.16741 9143 ft 280 kts 359°
2026-05-05 12:11 51.60723 -0.16678 9971 ft 279 kts
2026-05-05 12:11 51.62631 -0.16051 10569 ft 286 kts 13°
2026-05-05 12:12 51.64624 -0.15324 10991 ft 300 kts 12°
2026-05-05 12:12 51.66697 -0.14488 11358 ft 315 kts 15°
2026-05-05 12:12 51.68849 -0.13512 11785 ft 326 kts 16°
2026-05-05 12:12 51.71038 -0.12495 12360 ft 331 kts 17°
2026-05-05 12:13 51.73134 -0.10999 12915 ft 337 kts 36°
2026-05-05 12:13 51.74735 -0.08229 13534 ft 342 kts 58°
2026-05-05 12:13 51.75561 -0.04637 14153 ft 346 kts 79°
2026-05-05 12:13 51.75879 -0.00759 14722 ft 349 kts 82°
2026-05-05 12:14 51.76169 0.03101 14939 ft 350 kts 82°
2026-05-05 12:14 51.76474 0.07050 15304 ft 356 kts 82°
2026-05-05 12:14 51.76787 0.10966 15950 ft 356 kts 82°
2026-05-05 12:14 51.77112 0.14968 16578 ft 358 kts 82°
2026-05-05 12:15 51.77433 0.18904 17108 ft 361 kts 82°
2026-05-05 12:15 51.77764 0.22958 17608 ft 364 kts 83°
2026-05-05 12:15 51.78091 0.26990 18121 ft 367 kts 83°
2026-05-05 12:15 51.78424 0.31106 18634 ft 370 kts 83°
2026-05-05 12:16 51.78753 0.35206 19131 ft 373 kts 83°
2026-05-05 12:16 51.79084 0.39364 19623 ft 376 kts 83°
2026-05-05 12:16 51.79417 0.43545 20101 ft 379 kts 83°
2026-05-05 12:16 51.79756 0.47817 20579 ft 382 kts 83°
2026-05-05 12:17 51.80088 0.52023 21052 ft 385 kts 83°
2026-05-05 12:17 51.80425 0.56340 21496 ft 388 kts 83°
2026-05-05 12:17 51.80764 0.60668 21935 ft 391 kts 83°
2026-05-05 12:17 51.81178 0.65056 22379 ft 394 kts 81°
2026-05-05 12:18 51.81770 0.69490 22809 ft 397 kts 78°
2026-05-05 12:18 51.82459 0.73991 22951 ft 399 kts 77°
2026-05-05 12:18 51.83145 0.78393 22958 ft 398 kts 77°
2026-05-05 12:18 51.83855 0.82724 22960 ft 398 kts 75°
2026-05-05 12:19 51.84629 0.87005 22974 ft 399 kts 75°
2026-05-05 12:19 51.85416 0.91303 22973 ft 399 kts 75°
2026-05-05 12:19 51.86209 0.95636 22966 ft 399 kts 75°
2026-05-05 12:19 51.86999 0.99970 22973 ft 399 kts 75°
2026-05-05 12:20 51.87774 1.04233 22972 ft 399 kts 75°
2026-05-05 12:20 51.88557 1.08567 22973 ft 399 kts 75°
2026-05-05 12:20 51.89340 1.12910 22970 ft 400 kts 75°
2026-05-05 12:20 51.90116 1.17220 22971 ft 400 kts 75°
2026-05-05 12:21 51.90894 1.21554 22968 ft 399 kts 75°
2026-05-05 12:21 51.91671 1.25886 22970 ft 399 kts 75°
2026-05-05 12:21 51.92439 1.30190 22968 ft 399 kts 75°
2026-05-05 12:21 51.93201 1.34462 22971 ft 399 kts 75°
2026-05-05 12:22 51.93976 1.38824 22971 ft 398 kts 75°
2026-05-05 12:22 51.94736 1.43106 22971 ft 399 kts 75°
2026-05-05 12:22 51.95493 1.47386 22974 ft 399 kts 75°
2026-05-05 12:22 51.96256 1.51707 22972 ft 399 kts 75°
2026-05-05 12:23 51.97019 1.56039 22972 ft 399 kts 75°
2026-05-05 12:23 51.97773 1.60340 22970 ft 399 kts 75°
2026-05-05 12:23 51.98534 1.64680 22965 ft 398 kts 75°
2026-05-05 12:23 51.99288 1.69017 22967 ft 398 kts 76°
2026-05-05 12:24 51.99986 1.73358 22969 ft 398 kts 77°
2026-05-05 12:24 52.00664 1.77759 22971 ft 398 kts 77°
2026-05-05 12:24 52.01349 1.82207 22960 ft 398 kts 77°
2026-05-05 12:24 52.02016 1.86551 22962 ft 398 kts 77°
2026-05-05 12:25 52.02681 1.90869 22956 ft 398 kts 77°
2026-05-05 12:25 52.03353 1.95239 22959 ft 398 kts 77°
2026-05-05 12:25 52.04023 1.99587 22963 ft 399 kts 77°
2026-05-05 12:25 52.04685 2.03910 22955 ft 399 kts 77°
2026-05-05 12:26 52.05357 2.08300 22957 ft 399 kts 77°
2026-05-05 12:26 52.06018 2.12630 22962 ft 399 kts 77°
2026-05-05 12:26 52.06686 2.17017 22956 ft 399 kts 77°
2026-05-05 12:26 52.07348 2.21379 22957 ft 399 kts 77°
2026-05-05 12:27 52.08008 2.25732 22969 ft 400 kts 77°
2026-05-05 12:27 52.08668 2.30103 22965 ft 399 kts 77°
2026-05-05 12:27 52.09327 2.34479 22968 ft 399 kts 77°
2026-05-05 12:27 52.09986 2.38867 22971 ft 399 kts 77°
2026-05-05 12:28 52.10646 2.43266 22959 ft 398 kts 76°
2026-05-05 12:28 52.11449 2.47508 22970 ft 399 kts 70°
2026-05-05 12:28 52.12547 2.51647 22968 ft 400 kts 63°
2026-05-05 12:28 52.13891 2.55610 22965 ft 400 kts 60°
2026-05-05 12:29 52.15310 2.59516 22973 ft 401 kts 59°
2026-05-05 12:29 52.16732 2.63397 22966 ft 402 kts 59°
2026-05-05 12:29 52.18175 2.67349 22960 ft 402 kts 60°
2026-05-05 12:29 52.19613 2.71307 22963 ft 401 kts 60°
2026-05-05 12:30 52.21025 2.75212 22962 ft 402 kts 60°
2026-05-05 12:30 52.22478 2.79240 22631 ft 404 kts 60°
2026-05-05 12:30 52.23904 2.83203 22026 ft 404 kts 60°
2026-05-05 12:30 52.25312 2.87126 21497 ft 401 kts 60°
2026-05-05 12:31 52.26699 2.90997 21015 ft 398 kts 60°
2026-05-05 12:31 52.28091 2.94890 20536 ft 395 kts 60°
2026-05-05 12:31 52.29457 2.98716 20061 ft 392 kts 60°
2026-05-05 12:31 52.30824 3.02551 19579 ft 390 kts 60°
2026-05-05 12:32 52.32182 3.06364 19104 ft 387 kts 60°
2026-05-05 12:32 52.33530 3.10161 18614 ft 385 kts 60°
2026-05-05 12:32 52.34864 3.13923 18131 ft 383 kts 60°
2026-05-05 12:32 52.36181 3.17642 17653 ft 381 kts 60°
2026-05-05 12:33 52.37506 3.21390 17169 ft 379 kts 60°
2026-05-05 12:33 52.38801 3.25053 16707 ft 376 kts 60°
2026-05-05 12:33 52.40115 3.28778 16237 ft 374 kts 59°
2026-05-05 12:33 52.41399 3.32426 15772 ft 371 kts 59°
2026-05-05 12:34 52.42667 3.36033 15312 ft 369 kts 59°
2026-05-05 12:34 52.43920 3.39706 14853 ft 367 kts 62°
2026-05-05 12:34 52.44912 3.43532 14381 ft 365 kts 70°
2026-05-05 12:34 52.45601 3.47469 13950 ft 362 kts 74°
2026-05-05 12:35 52.46186 3.51497 13479 ft 360 kts 75°
2026-05-05 12:35 52.46745 3.55469 13015 ft 358 kts 76°
2026-05-05 12:35 52.47299 3.59413 12546 ft 357 kts 76°
2026-05-05 12:35 52.47855 3.63352 12085 ft 355 kts 76°
2026-05-05 12:36 52.48412 3.67290 11610 ft 353 kts 76°
2026-05-05 12:36 52.48969 3.71224 11168 ft 350 kts 76°
2026-05-05 12:36 52.49522 3.75139 10777 ft 339 kts 76°
2026-05-05 12:36 52.50005 3.78562 10427 ft 325 kts 76°
2026-05-05 12:37 52.50510 3.82146 10037 ft 307 kts 76°
2026-05-05 12:37 52.50963 3.85367 9667 ft 292 kts 76°
2026-05-05 12:37 52.51410 3.88553 9302 ft 286 kts 76°
2026-05-05 12:37 52.51857 3.91738 9045 ft 285 kts 76°
2026-05-05 12:38 52.52240 3.94894 8786 ft 284 kts 85°
2026-05-05 12:38 52.51876 3.98033 8506 ft 286 kts 116°
2026-05-05 12:38 52.50700 4.00643 8283 ft 286 kts 130°
2026-05-05 12:38 52.49397 4.03105 8030 ft 285 kts 129°
2026-05-05 12:39 52.48120 4.05544 7775 ft 283 kts 129°
2026-05-05 12:39 52.46852 4.07991 7532 ft 282 kts 129°
2026-05-05 12:39 52.45584 4.10457 7261 ft 279 kts 128°
2026-05-05 12:39 52.44357 4.12854 7003 ft 275 kts 128°
2026-05-05 12:40 52.43142 4.15231 6737 ft 269 kts 128°
2026-05-05 12:40 52.41959 4.17546 6490 ft 261 kts 128°
2026-05-05 12:40 52.40811 4.19792 6219 ft 254 kts 128°
2026-05-05 12:40 52.39703 4.21959 5958 ft 247 kts 128°
2026-05-05 12:41 52.38608 4.24098 5699 ft 243 kts 127°
2026-05-05 12:41 52.37540 4.26183 5447 ft 240 kts 127°
2026-05-05 12:41 52.36470 4.28274 5198 ft 238 kts 127°
2026-05-05 12:41 52.35404 4.30353 4932 ft 237 kts 127°
2026-05-05 12:42 52.34352 4.32405 4682 ft 236 kts 127°
2026-05-05 12:42 52.33309 4.34438 4437 ft 234 kts 127°
2026-05-05 12:42 52.32261 4.36477 4190 ft 233 kts 126°
2026-05-05 12:42 52.31225 4.38492 3928 ft 232 kts 126°
2026-05-05 12:43 52.30189 4.40506 3672 ft 231 kts 126°
2026-05-05 12:43 52.29165 4.42493 3427 ft 230 kts 126°
2026-05-05 12:43 52.28142 4.44477 3171 ft 228 kts 126°
2026-05-05 12:43 52.27114 4.46474 2921 ft 228 kts 126°
2026-05-05 12:44 52.26105 4.48430 2674 ft 229 kts 126°
2026-05-05 12:44 52.25083 4.50409 2416 ft 226 kts 126°
2026-05-05 12:44 52.24076 4.52351 2162 ft 221 kts 126°
2026-05-05 12:44 52.23119 4.54260 1994 ft 214 kts 116°
2026-05-05 12:45 52.22756 4.56432 1967 ft 192 kts 80°
2026-05-05 12:45 52.23097 4.58412 2065 ft 172 kts 63°
2026-05-05 12:45 52.23667 4.60121 1958 ft 169 kts 56°
2026-05-05 12:45 52.24282 4.61676 1704 ft 158 kts 55°
2026-05-05 12:46 52.24863 4.63145 1445 ft 151 kts 56°
2026-05-05 12:46 52.25397 4.64542 1302 ft 135 kts 56°
2026-05-05 12:46 52.25863 4.65791 1145 ft 129 kts 58°
2026-05-05 12:46 52.26346 4.67048 958 ft 126 kts 55°
2026-05-05 12:47 52.26825 4.68286 769 ft 126 kts 55°
2026-05-05 12:47 52.27299 4.69532 599 ft 126 kts 56°
2026-05-05 12:47 52.27701 4.70557 455 ft 125 kts 57°
2026-05-05 12:47 52.28174 4.71791 293 ft 125 kts 59°
2026-05-05 12:48 52.28628 4.72973 135 ft 126 kts 60°
2026-05-05 12:48 52.29087 4.74183 7 ft 122 kts 56°
2026-05-05 12:48 52.29485 4.75216 -2 ft 83 kts 58°
2026-05-05 12:48 52.29709 4.75797 -3 ft 45 kts 58°
2026-05-05 12:49 52.29857 4.76177 -3 ft 37 kts 55°
2026-05-05 12:49 52.29968 4.76464 -3 ft 22 kts 49°
2026-05-05 12:49 52.30090 4.76593 -2 ft 20 kts 28°
2026-05-05 12:49 52.30204 4.76692 0 ft 7 kts 27°
2026-05-05 12:50 52.30213 4.76700 0 ft 1 kts 27°
2026-05-05 12:50 52.30225 4.76709 0 ft 1 kts 27°
2026-05-05 12:50 52.30239 4.76721 0 ft 2 kts 27°
2026-05-05 12:50 52.30259 4.76738 0 ft 3 kts 28°
2026-05-05 12:51 52.30289 4.76765 0 ft 7 kts 38°
2026-05-05 12:51 52.30326 4.76857 0 ft 11 kts 58°
2026-05-05 12:51 52.30367 4.76967 1 ft 11 kts 58°
2026-05-05 12:51 52.30424 4.77047 2 ft 11 kts 355°
2026-05-05 12:52 52.30494 4.76983 3 ft 11 kts 328°
2026-05-05 12:52 52.30564 4.76912 4 ft 11 kts 327°
2026-05-05 12:52 52.30605 4.76869 5 ft 5 kts 327°
2026-05-05 12:52 52.30641 4.76856 5 ft 5 kts 20°
2026-05-05 12:53 52.30657 4.76920 5 ft 7 kts 95°
2026-05-05 12:53 52.30654 4.77008 5 ft 4 kts 72°
2026-05-05 12:53 52.30690 4.77024 6 ft 6 kts
2026-05-05 12:53 52.30705 4.77025 6 ft 1 kts
2026-05-05 12:54 52.30715 4.77026 6 ft 0 kts